Regional Weather Roundup
Issued by NWS

Home | Current Version | Previous Version | Text Only | Print | Product List | Glossary On
Versions: 1 2 3 4 5 6 7 8 9 10 11 12 13 14 15 16 17 18 19 20 21 22 23 24 25 26 27 28 29 30 31 32 33 34 35 36 37 38 39 40 41 42 43 44 45 46 47 48 49 50
000
ASCA42 TJSJ 251710
RWRPR
PUERTO RICO/U.S. VIRGIN ISLANDS HOURLY WEATHER ROUNDUP
NATIONAL WEATHER SERVICE SAN JUAN PR
100 PM AST WED MAY 25 2016

PRZ001-004-251800-
PUERTO RICO

CITY           SKY/WX    TMP DP  RH WIND       PRES   REMARKS
SAN JUAN LMM   MOSUNNY   88  75  66 E18       30.02F HX  97
AGUADILLA      SUNNY     84  73  70 E15       30.06  HX  91
CEIBA          SUNNY     86  72  62 E13       30.07F HX  92
$$

PRZ006-007-251800-
U.S. VIRGIN ISLANDS

CITY           SKY/WX    TMP DP  RH WIND       PRES   REMARKS
CHARLOTTE AMA  MOSUNNY   84  73  70 SE18      30.04F HX  91
CHRISTIANSTED  MOSUNNY   86  72  62 E15G22    30.06F HX  92
$$

HOURLY WEATHER ROUNDUP FOR THE NEWS MEDIA

CITY           SKY/WX    TMP DP  RH WIND       PRES   REMARKS
ORLANDO        SUNNY     88  53  30 E15       30.22F
NEW YORK       MOSUNNY   82  53  36 SW15      30.07S
NEWARK         MOSUNNY   88  43  20 NW9       30.06S
CHICAGO        PTSUNNY   80  65  59 S10       29.99R
HARTFORD       SUNNY     78  56  46 CALM      29.98F
BOSTON         SUNNY     67  58  72 E9        29.97F
DALLAS         CLOUDY    84  72  67 S14G22    29.96F
PHILADELPHIA   CLOUDY    84  40  21 SW13      30.11S
LOS ANGELES    PTSUNNY   62  51  67 W10       30.09R
WASHINGTON DC  FAIR      82  50  32 W7        30.16S


USA.gov is the U.S. government's official web portal to all federal, state and local government web resources and services.